KQ4KX Weather Reports


time (UTC)temp
C
wind
direction
speed
KPH
gust
KPH
rain 1hr
cm
rain 24hr
cm
rain mn
cm
humidity
%
barometer
mb
20260508120905 24 292 1.6 6.4 0.00 0.00 0.00 94 1015.8
20260508120335 24 290 1.6 6.4 0.00 0.00 0.00 94 1015.7
20260508115815 23 287 1.6 3.2 0.00 0.00 0.00 95 1015.6
20260508115805 23 287 1.6 6.4 0.00 0.00 0.00 94 1015.7
20260508115235 23 287 1.6 3.2 0.00 0.00 0.00 95 1015.6
20260508114205 23 299 1.6 4.8 0.00 0.00 0.00 95 1015.3
20260508112635 23 299 1.6 3.2 0.00 0.00 0.00 96 1015.3
20260508112338 23 294 1.6 3.2 0.00 0.00 0.00 96 1015.1
20260508112135 23 294 1.6 3.2 0.00 0.00 0.00 96 1015.1
20260508111605 22 297 1.6 3.2 0.00 0.00 0.00 96 1015.1
20260508110505 22 294 1.6 3.2 0.00 0.00 0.00 97 1015.1
20260508105435 22 279 1.6 3.2 0.00 0.00 0.00 98 1014.7
20260508104905 22 282 1.6 3.2 0.00 0.00 0.00 98 1014.7
20260508104405 22 286 1.6 3.2 0.00 0.00 0.00 98 1014.6
20260508103904 22 287 1.6 3.2 0.00 0.00 0.00 98 1014.6
20260508102805 22 279 1.6 1.6 0.00 0.00 0.00 98 1014.5
20260508102306 22 279 1.6 1.6 0.00 0.00 0.00 98 1014.5
20260508101735 22 279 1.6 1.6 0.00 0.00 0.00 98 1014.5
20260508101235 21 279 1.6 1.6 0.00 0.00 0.00 98 1014.4
20260508100735 21 279 1.6 1.6 0.00 0.00 0.00 98 1014.3
20260508094705 21 279 1.6 3.2 0.00 0.00 0.00 98 1014.0
20260508094204 21 279 1.6 1.6 0.00 0.00 0.00 98 1013.9
20260508093134 21 279 1.6 1.6 0.00 0.00 0.00 97 1013.8
20260508092605 21 279 1.6 1.6 0.00 0.00 0.00 97 1013.8
20260508085505 21 0 0.0 1.6 0.00 0.00 0.00 96 1013.6
20260508085004 21 279 0.0 1.6 0.00 0.00 0.00 95 1013.7
20260508084434 21 279 0.0 1.6 0.00 0.00 0.00 95 1013.6
20260508083904 21 0 0.0 0.0 0.00 0.00 0.00 95 1013.6
20260508082235 22 279 0.0 1.6 0.00 0.00 0.00 94 1013.7
20260508081734 22 280 0.0 1.6 0.00 0.00 0.00 94 1013.6
20260508081206 22 280 0.0 1.6 0.00 0.00 0.00 94 1013.6
20260508080704 22 281 1.6 3.2 0.00 0.00 0.00 94 1013.6
20260508080205 22 281 1.6 3.2 0.00 0.00 0.00 94 1013.6
20260508075634 22 279 1.6 3.2 0.00 0.00 0.00 94 1013.6
20260508075105 22 277 1.6 3.2 0.00 0.00 0.00 94 1013.6
20260508073505 22 283 1.6 3.2 0.00 0.00 0.00 93 1013.8
20260508071405 22 301 1.6 3.2 0.00 0.00 0.00 93 1013.9
20260508070905 22 303 1.6 3.2 0.00 0.00 0.00 93 1013.9
20260508070008 22 294 1.6 3.2 0.00 0.00 0.00 93 1013.9
20260508065905 22 294 1.6 3.2 0.00 0.00 0.00 93 1013.9
20260508065334 22 308 1.6 3.2 0.00 0.00 0.00 93 1013.8
20260508064805 22 297 1.6 3.2 0.00 0.00 0.00 93 1013.9
20260508064609 22 287 1.6 3.2 0.00 0.00 0.00 93 1013.9
20260508064304 22 287 1.6 3.2 0.00 0.00 0.00 93 1013.9
20260508063805 22 298 1.6 3.2 0.00 0.00 0.00 93 1013.9
20260508063305 22 289 1.6 6.4 0.00 0.00 0.00 93 1014.0
20260508062735 22 276 1.6 3.2 0.00 0.00 0.00 93 1014.0
20260508062205 22 273 1.6 3.2 0.00 0.00 0.00 92 1014.2
20260508061134 22 278 1.6 3.2 0.00 0.00 0.00 91 1014.3
20260508060634 22 280 1.6 3.2 0.00 0.00 0.00 91 1014.3
20260508060134 22 279 1.6 3.2 0.00 0.00 0.00 91 1014.3
20260508055604 22 277 1.6 3.2 0.00 0.00 0.00 91 1014.4
20260508055105 22 277 1.6 3.2 0.00 0.00 0.00 90 1014.4
20260508053535 22 305 1.6 3.2 0.00 0.00 0.00 89 1014.6
20260508052504 22 291 1.6 3.2 0.00 0.00 0.00 89 1014.7
20260508051504 22 288 1.6 3.2 0.00 0.00 0.00 88 1014.6
20260508050435 23 303 1.6 3.2 0.00 0.00 0.00 86 1014.7
20260508045435 23 305 1.6 3.2 0.00 0.00 0.00 86 1014.8
20260508044406 23 311 1.6 3.2 0.00 0.00 0.00 85 1014.7
20260508043906 23 291 1.6 3.2 0.00 0.00 0.00 84 1014.7
20260508043550 23 278 1.6 4.8 0.00 0.00 0.00 84 1014.8
20260508043501 23 278 1.6 4.8 0.00 0.00 0.00 84 1014.8
20260508043335 23 278 1.6 4.8 0.00 0.00 0.00 84 1014.8
20260508043302 23 277 1.6 4.8 0.00 0.00 0.00 83 1014.9
20260508042805 23 277 1.6 4.8 0.00 0.00 0.00 83 1014.9
20260508042627 23 281 1.6 3.2 0.00 0.00 0.00 82 1014.8
20260508042307 23 281 1.6 3.2 0.00 0.00 0.00 82 1014.8
20260508041924 23 287 1.6 3.2 0.00 0.00 0.00 81 1014.8
20260508041735 23 287 1.6 3.2 0.00 0.00 0.00 81 1014.8
20260508040205 24 294 1.6 3.2 0.00 0.00 0.00 80 1014.8
20260508034245 24 295 1.6 3.2 0.00 0.00 0.00 79 1014.7
20260508034034 24 295 1.6 3.2 0.00 0.00 0.00 79 1014.7
20260508031435 25 309 3.2 4.8 0.00 0.00 0.00 76 1014.7
20260508030934 25 302 3.2 4.8 0.00 0.00 0.00 75 1014.6
20260508030434 25 306 3.2 4.8 0.00 0.00 0.00 75 1014.4
20260508030000 25 309 3.2 4.8 0.00 0.00 0.00 74 1014.5
20260508025905 25 309 3.2 4.8 0.00 0.00 0.00 74 1014.5
20260508024437 25 312 3.2 4.8 0.00 0.00 0.00 71 1014.5
20260508024304 25 312 3.2 4.8 0.00 0.00 0.00 71 1014.5
20260508023833 26 311 3.2 4.8 0.00 0.00 0.00 70 1014.5
20260508023734 26 311 3.2 4.8 0.00 0.00 0.00 70 1014.5
20260508022820 26 312 3.2 4.8 0.00 0.00 0.00 68 1014.5
20260508022635 26 312 3.2 4.8 0.00 0.00 0.00 68 1014.5
20260508021035 26 297 3.2 11.3 0.00 0.00 0.00 65 1014.3
20260508020505 26 295 3.2 6.4 0.00 0.00 0.00 64 1014.3
20260508015625 26 298 3.2 4.8 0.00 0.00 0.00 63 1014.2
20260508015505 26 298 3.2 4.8 0.00 0.00 0.00 63 1014.2
20260508014935 27 298 1.6 4.8 0.00 0.00 0.00 62 1014.1
20260508014435 27 294 3.2 4.8 0.00 0.00 0.00 61 1014.2
20260508013404 27 298 3.2 6.4 0.00 0.00 0.00 60 1014.1
20260508012834 27 295 3.2 6.4 0.00 0.00 0.00 58 1014.1
20260508012335 27 294 3.2 6.4 0.00 0.00 0.00 57 1014.1
20260508011804 27 295 3.2 9.7 0.00 0.00 0.00 56 1014.0
20260508011234 27 296 3.2 9.7 0.00 0.00 0.00 54 1014.0
20260508010704 27 294 3.2 4.8 0.00 0.00 0.00 52 1013.9
20260508010205 28 293 3.2 4.8 0.00 0.00 0.00 51 1013.8
20260508005704 28 297 1.6 4.8 0.00 0.00 0.00 50 1013.8
20260508004634 28 290 3.2 4.8 0.00 0.00 0.00 47 1013.9
20260508004149 28 293 3.2 9.7 0.00 0.00 0.00 46 1013.9
20260508004104 28 293 3.2 9.7 0.00 0.00 0.00 46 1013.9
20260508003605 28 296 3.2 9.7 0.00 0.00 0.00 45 1013.9
20260508003105 28 296 3.2 6.4 0.00 0.00 0.00 44 1013.9
20260508002605 28 292 3.2 6.4 0.00 0.00 0.00 44 1013.9
20260508002104 28 289 3.2 6.4 0.00 0.00 0.00 42 1013.9
20260508001034 29 295 3.2 6.4 0.00 0.00 0.00 41 1013.8
20260508000035 30 297 3.2 6.4 0.00 0.00 0.00 41 1013.6
20260507235505 30 291 3.2 8.0 0.00 0.00 0.00 40 1013.6
20260507234934 30 290 3.2 6.4 0.00 0.00 0.00 40 1013.6
20260507234404 30 297 3.2 9.7 0.00 0.00 0.00 39 1013.6
20260507233905 30 299 3.2 11.3 0.00 0.00 0.00 38 1013.5
20260507233404 31 304 3.2 11.3 0.00 0.00 0.00 38 1013.6
20260507232904 31 307 3.2 6.4 0.00 0.00 0.00 38 1013.6
20260507231305 31 289 4.8 12.9 0.00 0.00 0.00 36 1013.4
20260507230805 31 285 4.8 14.5 0.00 0.00 0.00 35 1013.4
20260507230235 32 284 4.8 12.9 0.00 0.00 0.00 34 1013.4
20260507225735 32 284 4.8 9.7 0.00 0.00 0.00 36 1013.4
20260507225204 32 285 4.8 12.9 0.00 0.00 0.00 38 1013.4
20260507224635 32 272 6.4 14.5 0.00 0.00 0.00 39 1013.4
20260507224134 32 275 6.4 14.5 0.00 0.00 0.00 40 1013.3
20260507223634 32 286 6.4 14.5 0.00 0.00 0.00 41 1013.2
20260507223104 32 283 6.4 14.5 0.00 0.00 0.00 41 1013.2
20260507222534 32 286 3.2 14.5 0.00 0.00 0.00 42 1013.1
20260507221504 32 265 4.8 12.9 0.00 0.00 0.00 43 1013.0
20260507220935 32 270 3.2 9.7 0.00 0.00 0.00 42 1013.0
20260507220434 32 270 3.2 11.3 0.00 0.00 0.00 42 1013.1
20260507215934 32 280 4.8 12.9 0.00 0.00 0.00 41 1013.1
20260507215435 32 294 3.2 12.9 0.00 0.00 0.00 41 1013.1
20260507214904 32 308 3.2 12.9 0.00 0.00 0.00 40 1013.1
20260507214404 32 291 6.4 12.9 0.00 0.00 0.00 39 1013.1
20260507213834 33 280 6.4 12.9 0.00 0.00 0.00 38 1013.2
20260507213334 33 293 3.2 11.3 0.00 0.00 0.00 37 1013.1
20260507211804 33 322 3.2 9.7 0.00 0.00 0.00 35 1013.2
20260507211305 33 316 3.2 9.7 0.00 0.00 0.00 34 1013.2
20260507210735 33 323 3.2 8.0 0.00 0.00 0.00 34 1013.2
20260507210204 33 314 4.8 6.4 0.00 0.00 0.00 33 1013.3
20260507205704 33 313 3.2 6.4 0.00 0.00 0.00 32 1013.3
20260507205204 33 321 4.8 9.7 0.00 0.00 0.00 31 1013.3
20260507204634 33 322 4.8 11.3 0.00 0.00 0.00 30 1013.4
20260507204134 33 305 4.8 11.3 0.00 0.00 0.00 30 1013.5
20260507203134 34 330 4.8 9.7 0.00 0.00 0.00 32 1013.4
20260507202604 34 326 4.8 9.7 0.00 0.00 0.00 32 1013.4
20260507202104 34 301 4.8 14.5 0.00 0.00 0.00 33 1013.5
20260507201104 35 287 4.8 12.9 0.00 0.00 0.00 37 1013.5
20260507200534 34 293 4.8 14.5 0.00 0.00 0.00 39 1013.6
20260507195435 35 285 4.8 14.5 0.00 0.00 0.00 39 1013.7
20260507194904 35 283 4.8 14.5 0.00 0.00 0.00 38 1013.8
20260507194334 35 285 4.8 12.9 0.00 0.00 0.00 36 1013.8
20260507193834 34 274 3.2 9.7 0.00 0.00 0.00 40 1013.8
20260507193512 33 247 4.8 12.9 0.00 0.00 0.00 44 1013.9
20260507193304 33 247 4.8 12.9 0.00 0.00 0.00 44 1013.9
20260507192804 33 265 4.8 14.5 0.00 0.00 0.00 42 1013.9
20260507192234 34 273 4.8 14.5 0.00 0.00 0.00 44 1013.8
20260507191204 34 250 4.8 14.5 0.00 0.00 0.00 44 1014.1
20260507190134 33 282 4.8 12.9 0.00 0.00 0.00 47 1014.3
20260507185634 33 250 6.4 22.5 0.00 0.00 0.00 46 1014.5
20260507185134 33 232 8.0 22.5 0.00 0.00 0.00 48 1014.5
20260507184604 33 219 6.4 17.7 0.00 0.00 0.00 48 1014.6
20260507184034 33 232 4.8 16.1 0.00 0.00 0.00 50 1014.7
20260507183534 33 244 6.4 20.9 0.00 0.00 0.00 50 1014.8
20260507182434 33 205 4.8 17.7 0.00 0.00 0.00 51 1014.9
20260507181904 32 232 4.8 17.7 0.00 0.00 0.00 52 1015.0
20260507181334 33 248 4.8 17.7 0.00 0.00 0.00 52 1015.2
20260507180234 32 226 6.4 22.5 0.00 0.00 0.00 53 1015.3
20260507175734 32 235 6.4 16.1 0.00 0.00 0.00 52 1015.3
20260507175205 32 244 8.0 16.1 0.00 0.00 0.00 53 1015.5
20260507174204 32 238 8.0 20.9 0.00 0.00 0.00 55 1015.5
20260507173704 32 244 6.4 19.3 0.00 0.00 0.00 55 1015.5
20260507173135 32 258 8.0 19.3 0.00 0.00 0.00 57 1015.7
20260507172635 32 239 6.4 19.3 0.00 0.00 0.00 56 1015.7
20260507172134 32 226 6.4 19.3 0.00 0.00 0.00 59 1015.7
20260507171604 32 232 6.4 19.3 0.00 0.00 0.00 59 1015.5
20260507171034 32 232 6.4 19.3 0.00 0.00 0.00 60 1015.7
20260507170504 31 231 6.4 20.9 0.00 0.00 0.00 59 1015.7
20260507165934 32 235 6.4 17.7 0.00 0.00 0.00 58 1015.8
20260507165434 32 241 6.4 17.7 0.00 0.00 0.00 58 1015.9
20260507164904 31 242 8.0 17.7 0.00 0.00 0.00 60 1015.9
20260507164404 31 229 8.0 22.5 0.00 0.00 0.00 60 1015.9
20260507163834 31 217 8.0 20.9 0.00 0.00 0.00 60 1016.0
20260507162307 31 232 6.4 19.3 0.00 0.00 0.00 59 1016.1
20260507160734 31 235 6.4 17.7 0.00 0.00 0.00 60 1016.3
20260507160206 31 235 6.4 17.7 0.00 0.00 0.00 61 1016.5
20260507155704 30 232 6.4 17.7 0.00 0.00 0.00 61 1016.4
20260507155134 30 207 8.0 19.3 0.00 0.00 0.00 60 1016.5
20260507154604 30 218 6.4 19.3 0.00 0.00 0.00 61 1016.5
20260507153604 30 245 8.0 17.7 0.00 0.00 0.00 62 1016.7
20260507153034 30 245 6.4 16.1 0.00 0.00 0.00 60 1016.7
20260507151934 30 224 6.4 14.5 0.00 0.00 0.00 60 1016.7
20260507151434 30 212 4.8 16.1 0.00 0.00 0.00 60 1016.7
20260507150934 30 240 6.4 16.1 0.00 0.00 0.00 60 1016.6
20260507144834 28 249 9.7 30.6 0.00 0.00 0.00 63 1016.7
20260507142704 28 235 8.0 20.9 0.00 0.00 0.00 65 1016.6
20260507142134 27 235 8.0 20.9 0.00 0.00 0.00 67 1016.6
20260507141634 27 234 8.0 17.7 0.00 0.00 0.00 68 1016.6
20260507140104 27 216 6.4 20.9 0.00 0.00 0.00 67 1016.7
20260507135604 27 227 4.8 12.9 0.00 0.00 0.00 68 1016.7
20260507135034 26 217 4.8 9.7 0.00 0.00 0.00 73 1016.8
20260507134109 26 205 4.8 14.5 0.00 0.00 0.00 75 1016.8
20260507133934 26 205 4.8 14.5 0.00 0.00 0.00 75 1016.8
20260507133434 26 212 4.8 14.5 0.00 0.00 0.00 74 1016.8
20260507131905 25 194 4.8 11.3 0.00 0.00 0.00 75 1016.6
20260507131334 25 193 4.8 11.3 0.00 0.00 0.00 76 1016.5
20260507130834 25 203 4.8 11.3 0.00 0.00 0.00 78 1016.5
20260507125204 24 194 3.2 9.7 0.00 0.00 0.00 80 1016.3
20260507124637 23 181 4.8 11.3 0.00 0.00 0.00 81 1016.4
20260507124134 23 181 4.8 11.3 0.00 0.00 0.00 82 1016.4